Retour au catalogue

STARLINK-37544

ActifCommunicationsSSO
NORAD 68909·PAYLOAD·🇺🇸 United States

Lancé Apr 30, 2026 depuis Vandenberg Space Force Base

Loading…

Prochains Passages (prochaines 24 heures)

TLE

FraisSource: CelesTrak SupGP

Époque: Sep 14, 2026, 21:05 UTC

1 68909C 26097Q   26257.87895833  .00073546  00000+0  22840-2 0  2578
2 68909  97.2850  92.0603 0001432  92.1462  57.0377 15.33388141    16

Suivez STARLINK-37544 en temps réel avec AllMySat

Download on the App Store